Location: Newark
(11.2914°S, 14.4718°E)
Time: 20:12:15
(UTC+00:00)

Tiros 1 despin weight - Pass Details

Date: 26 September 2019
Orbit: 593 x 643 km, 48.2° (Epoch: 22 October)

Event Time Altitude Azimuth Distance (km) Brightness Sun altitude
Rises 19:15:06 0° 295° (WNW) 2,817 ? -34.3°
Reaches altitude 10° 19:17:42 10° 282° (WNW) 1,924 ? -34.9°
Enters shadow 19:19:23 18° 264° (W) 1,458 ? -35.3°
Maximum altitude 19:21:19 25° 226° (SW) 1,228 - -35.8°
Drops below altitude 10° 19:25:00 10° 171° (S) 1,952 - -36.7°
Sets 19:27:40 0° 157° (SSE) 2,868 - -37.3°
